Location: Newark
(36.0797°N, 3.9744°E)
Time: 11:15:47
(UTC+00:00)

Vanguard 2 Rocket - Pass Details

Date: 14 December 2019
Orbit: 554 x 3326 km, 32.9° (Epoch: 23 January)

Event Time Altitude Azimuth Distance (km) Brightness Sun altitude
Rises 20:44:03 0° 278° (W) 5,705 11.6 -50.3°
Reaches altitude 10° 20:48:36 10° 275° (W) 4,231 10.7 -51.2°
Enters shadow 20:53:43 28° 264° (W) 2,549 9.3 -52.2°
Maximum altitude 20:58:28 52° 203° (SSW) 1,449 - -53.2°
Drops below altitude 10° 21:04:10 10° 128° (SE) 2,484 - -54.3°
Sets 21:06:13 0° 122° (ESE) 3,213 - -54.7°
